Tracking 31027 objects as of 19-Jul-2025
HD Live streaming from Space Station
objects crossing your sky now

IRIDIUM 33 DEB

Track IRIDIUM 33 DEB now!
10-day predictions


NORAD ID: 34540
Int'l Code: 1997-051JH
Perigee: 650.9 km
Apogee: 673.8 km
Inclination: 86.3 °
Period: 97.8 minutes
Semi major axis: 7033 km
RCS: 0.029 m2 (small)
Launch date: September 14, 1997
Source: United States (US)
Launch site: TYURATAM MISSILE AND SPACE COMPLEX (TTMTR)

Note: This is SATELLITE DEBRIS
Your satellite tracking list
SPACEBEE-134
Track 1 satellite(s)




NASA's NSSDC Master Catalog

Two Line Element Set (TLE):
1 34540U 97051JH  25199.48272534  .00005391  00000-0  85712-3 0  9993
2 34540  86.3143  14.6653 0016265 326.6699  61.3992 14.71824294868531
Source of the keplerian elements: AFSPC